Orbital Elements at Epoch 2459000.5 (2020-May-31.0) TDB
Reference: JPL 12 (heliocentric ecliptic J2000)
Element | Value | Uncertainty (1-sigma) | Units |
e | .09140293204007073 | 6.4525e-08 | |
a | 3.104057481497863 | 3.4839e-08 | au |
q | 2.820337526468041 | 1.8894e-07 | au |
i | 10.51463782873749 | 6.2557e-06 | deg |
node | 310.9515771488748 | 2.9597e-05 | deg |
peri | 330.2418123847173 | 4.4982e-05 | deg |
M | 86.7643099438716 | 3.5619e-05 | deg |
tp | 2458519.071633824675 (2019-Feb-04.57163382) | 0.00019671 | TDB |
period | 1997.528844927543 5.47 | 3.363e-05 9.207e-08 | d yr |
n | .1802226790938072 | 3.0342e-09 | deg/d |
Q | 3.387777436527685 | 3.8024e-08 | au |
|
| | Orbit Determination Parameters
Additional Information
|